Theta_e
350 351 352 354 350 352 352 354 359 358 360 346 335 344 351 353 356 358 359 358 360 357 353 352 350 350 351 351 352 354 354 357 357 352 351 355 353 351 354 352 353 354 354 354 354 354 354 356 356 355 354 353 353 354 352 352 354 354 352 352 352 353 348 341 340 342 343 345 345 347 347 347 347 348 348 348 349 349 350 350 350 350 350 350 349 350 349 349 348 348 349 349 349 350 350 349 349
352 353 354 354 351 353 354 357 358 349 353 344 337 344 350 356 357 357 358 358 360 355 352 350 349 350 350 350 349 355 355 352 352 352 352 354 352 353 353 353 354 353 354 354 354 354 354 355 355 355 352 351 353 352 352 353 354 354 353 352 353 352 345 339 341 342 343 344 346 347 346 347 347 347 348 349 349 349 350 350 351 350 350 349 349 350 350 350 350 349 349 349 348 349 350 349 347
353 354 354 354 354 355 357 360 351 344 348 338 335 348 351 356 355 356 355 355 356 351 352 350 350 351 349 350 351 357 355 350 348 347 350 353 353 353 353 353 354 354 354 354 354 354 354 354 354 353 350 351 354 353 352 354 354 353 353 353 352 348 341 339 340 341 344 346 347 346 345 346 346 347 348 349 350 350 350 351 351 350 349 348 348 349 350 351 350 350 350 349 348 348 350 349 347
354 355 355 355 357 357 359 360 352 348 343 328 330 349 353 355 354 355 354 355 354 351 353 351 352 351 350 353 352 356 354 349 350 348 349 352 352 353 353 353 353 354 354 354 354 355 354 353 354 353 351 353 355 354 353 354 353 352 353 353 348 342 338 337 339 342 345 347 347 346 345 345 345 346 348 349 350 350 350 351 351 350 349 348 349 350 350 351 351 351 350 349 348 348 349 349 347
355 356 355 356 360 360 360 357 352 347 338 331 334 347 354 353 355 355 354 354 352 352 352 352 354 351 352 353 352 356 353 349 350 351 350 351 352 352 353 353 353 353 354 354 354 355 354 352 353 352 352 354 355 354 353 352 350 349 350 348 342 337 336 337 340 344 346 347 346 345 344 345 346 347 347 348 349 349 350 351 350 349 350 350 350 350 351 351 351 350 350 349 348 348 348 348 347
355 356 356 357 360 359 360 350 342 338 340 348 343 346 354 351 355 354 355 354 352 353 351 353 353 352 353 351 351 353 351 349 350 351 351 352 352 352 353 352 352 353 354 355 354 355 353 352 353 351 353 354 354 353 351 348 344 343 343 341 337 336 336 338 342 345 347 347 346 345 344 345 346 346 345 345 346 347 349 350 350 349 350 351 351 351 351 351 351 350 350 350 348 348 347 348 349
356 357 356 358 358 358 359 343 335 339 344 353 349 350 353 351 355 353 355 355 354 353 351 354 351 354 355 352 352 352 351 351 350 350 351 352 351 352 352 352 352 352 354 354 354 355 353 353 354 353 353 353 352 352 349 345 340 339 339 337 336 337 338 340 343 345 347 347 346 345 344 344 344 344 343 343 344 345 347 348 349 349 350 351 351 350 351 351 351 350 350 350 349 348 347 348 350
356 356 355 359 360 357 353 339 339 346 345 350 351 351 351 353 354 353 356 354 356 354 353 353 350 356 355 353 354 353 352 351 351 351 352 352 351 351 352 352 352 352 353 354 355 354 351 352 355 355 354 352 352 351 347 343 340 338 337 336 338 340 341 341 343 345 346 347 346 345 345 345 344 343 342 341 342 343 344 346 348 349 350 350 350 350 350 350 350 350 350 350 349 348 346 347 349
355 355 356 357 358 352 344 339 341 347 349 351 350 351 351 352 352 353 354 354 355 354 354 352 350 356 355 355 355 352 352 352 351 352 352 351 351 350 351 352 352 352 353 354 354 353 351 352 354 354 353 351 351 348 345 343 341 339 337 337 341 341 341 342 344 346 346 346 346 346 346 346 345 342 340 340 340 341 342 344 346 347 349 350 350 350 349 349 350 351 350 350 349 348 347 346 349
354 354 356 357 353 341 332 334 339 345 350 350 349 350 351 351 352 353 353 353 354 353 354 351 352 355 354 356 355 352 352 351 351 351 351 351 351 350 351 352 352 352 353 353 354 353 352 351 353 352 350 348 347 345 343 343 343 340 337 338 341 341 342 343 345 347 346 345 346 347 346 347 345 342 340 340 340 342 343 344 345 346 349 350 350 350 349 349 350 351 350 349 348 349 347 346 349
354 351 353 353 344 331 324 329 337 345 348 348 350 349 350 351 352 352 353 353 352 354 353 352 354 354 354 356 354 353 352 351 351 351 350 350 351 350 351 351 352 352 352 353 354 354 353 350 352 352 348 347 347 346 345 344 344 340 337 339 340 341 342 344 347 348 346 344 346 347 347 347 345 342 340 339 341 344 345 345 344 346 348 349 350 349 349 348 349 350 350 349 348 348 347 347 349
355 354 354 350 340 334 332 332 336 344 348 347 349 349 350 350 352 352 352 352 352 354 352 353 354 352 354 355 353 352 352 351 351 350 350 350 351 351 351 351 352 352 352 353 354 355 354 352 352 352 350 348 347 347 346 344 343 341 340 339 340 341 343 344 346 346 345 343 345 346 346 346 345 343 341 337 340 346 348 347 346 346 348 348 348 349 349 348 348 349 349 350 349 348 347 348 349
354 355 353 350 346 345 342 336 339 344 344 345 348 348 349 349 352 351 352 352 351 354 352 352 351 352 353 353 353 351 350 351 350 350 350 350 350 352 352 352 352 353 352 352 355 355 355 355 354 353 350 347 346 345 344 344 344 342 341 340 340 342 343 343 344 345 344 342 343 345 344 345 344 344 342 338 339 345 350 349 347 346 347 347 346 348 349 348 348 348 349 351 351 349 348 348 349
351 353 353 352 352 352 345 338 339 337 336 344 347 347 350 350 351 350 352 351 351 353 352 352 350 352 354 353 352 349 348 351 351 350 350 350 350 352 352 353 352 352 352 353 355 355 356 356 356 354 351 349 348 346 344 344 344 343 343 342 341 342 342 342 343 344 343 342 342 342 342 343 344 345 344 341 339 342 347 349 348 347 346 346 345 348 350 349 350 351 351 350 351 350 348 348 348
350 351 353 354 349 346 344 340 340 334 334 343 346 348 350 348 350 350 351 352 353 351 350 352 350 352 353 353 352 348 349 351 351 350 350 350 349 352 352 352 352 353 352 353 355 355 355 355 356 354 352 353 351 351 349 344 343 343 342 342 341 341 342 341 342 343 342 340 341 342 341 341 343 344 343 343 342 342 347 349 348 346 345 345 344 347 350 351 351 351 351 350 349 349 348 348 348
349 350 355 353 344 339 340 343 341 336 337 345 347 348 350 350 350 350 351 351 352 349 350 351 349 351 350 350 352 348 350 351 351 351 350 350 349 350 351 352 352 352 352 352 353 354 355 353 355 355 353 354 353 353 352 348 344 343 342 342 342 341 341 341 342 342 340 339 341 342 341 343 346 346 346 348 346 344 347 349 349 347 345 345 344 344 348 350 350 350 349 348 348 348 348 347 347
347 351 355 348 341 338 340 345 341 336 341 347 348 348 350 351 351 351 351 350 351 349 349 350 348 349 349 349 351 349 351 350 351 351 351 351 350 350 351 352 352 352 352 352 352 353 354 353 355 356 354 354 353 352 353 352 346 343 344 342 341 341 341 341 341 342 341 341 342 342 343 350 353 351 352 352 350 348 346 346 348 348 348 349 348 347 348 349 350 350 348 347 346 347 349 349 348
349 353 353 344 344 344 344 348 344 344 347 346 347 349 350 351 352 352 350 350 351 349 350 350 349 350 351 352 352 350 350 350 351 351 351 352 351 351 350 351 352 352 352 352 352 352 354 356 356 355 355 354 353 353 353 353 348 346 349 346 344 344 343 342 344 346 347 348 346 346 349 353 353 353 354 353 353 351 347 346 349 349 349 351 350 349 350 348 348 348 347 347 347 347 351 354 352
350 355 352 346 350 349 347 350 348 348 346 344 346 348 349 350 352 352 351 352 351 351 352 351 350 352 351 352 351 350 349 350 351 350 351 351 351 350 350 350 350 352 352 352 353 353 355 356 354 353 355 354 354 354 353 353 351 350 352 351 350 350 348 347 350 352 353 353 352 351 353 352 352 353 352 349 349 350 347 345 348 350 349 350 350 350 350 348 347 346 345 348 350 351 353 354 354
352 354 354 352 351 350 349 350 349 347 344 344 346 347 350 350 352 352 350 352 352 352 353 352 353 353 351 350 351 351 350 350 350 349 351 351 350 349 349 349 349 350 352 352 353 353 354 355 354 353 355 354 354 353 352 353 352 351 352 352 352 353 352 352 354 354 354 354 354 353 353 352 352 353 348 343 346 352 350 346 348 351 350 350 351 353 352 349 349 348 348 350 350 351 352 351 352
352 353 355 354 350 349 349 349 349 346 345 345 346 349 350 350 352 351 349 352 351 350 351 352 353 353 351 349 350 352 350 350 349 348 349 350 349 348 348 348 348 348 350 352 353 353 354 354 354 354 354 354 353 353 352 352 352 352 351 352 352 353 353 353 354 354 355 354 354 353 353 353 352 352 350 347 351 354 353 352 352 354 355 354 353 355 354 352 352 352 352 351 351 350 351 350 351
353 354 353 353 351 351 350 349 350 347 346 346 347 349 349 351 352 351 351 350 347 347 348 350 351 352 351 349 349 351 350 350 350 349 349 349 349 348 348 347 347 348 348 351 352 353 354 354 353 354 354 354 354 353 352 352 352 353 352 353 353 353 353 354 354 354 354 354 354 353 352 352 351 352 351 350 352 352 353 354 354 355 355 355 354 354 353 353 352 352 353 352 352 352 351 350 351
351 353 352 353 352 353 351 351 351 349 347 347 347 348 347 350 351 351 350 347 345 346 347 348 351 352 352 351 350 349 348 348 349 350 350 349 350 349 348 348 348 348 349 350 351 353 354 354 354 354 354 354 355 354 353 352 353 354 354 353 353 353 354 354 355 354 354 354 354 354 352 351 351 351 351 351 351 352 353 353 354 354 354 354 353 353 353 353 353 352 353 352 352 351 351 351 351
350 350 351 353 353 353 352 350 350 348 347 346 345 345 346 349 349 350 351 349 347 348 349 349 352 354 353 351 349 348 348 349 350 351 350 350 351 350 350 350 349 349 349 350 350 352 354 354 354 354 355 355 355 355 354 353 353 354 354 353 353 353 354 354 354 354 354 354 354 354 353 351 351 351 351 351 351 353 354 354 354 354 353 354 353 353 353 353 353 353 353 353 352 352 351 351 351
350 349 349 352 352 352 351 349 348 346 347 345 344 344 345 347 347 347 350 349 348 350 350 350 352 353 352 349 349 349 349 350 351 351 351 351 351 350 351 350 350 350 350 350 349 351 353 354 354 354 355 355 355 355 355 354 354 353 354 353 353 353 354 354 353 354 354 354 354 354 354 352 352 351 351 351 352 354 355 355 354 354 354 354 353 353 353 353 353 352 353 353 353 352 352 351 351
350 350 348 351 350 349 348 347 347 345 346 345 344 343 342 344 346 347 348 348 348 350 352 353 353 352 351 350 348 349 348 349 352 352 352 351 351 351 352 351 351 351 351 351 349 350 352 352 354 354 354 355 355 355 354 354 354 353 353 354 354 354 353 354 354 354 354 354 354 354 354 354 353 352 352 352 353 355 355 355 355 355 354 354 354 353 353 353 352 352 354 354 354 353 352 351 351
348 350 349 350 348 348 347 345 346 344 344 345 344 343 340 341 346 348 347 347 349 352 354 353 354 353 352 350 348 350 349 350 352 352 352 352 352 352 352 353 351 352 352 352 350 350 351 351 353 354 354 355 354 354 354 353 354 353 354 354 354 354 353 354 354 354 354 354 354 354 354 355 354 353 353 354 354 355 355 355 355 355 355 354 354 353 354 353 353 354 355 354 355 353 350 350 352
346 347 347 346 344 345 343 343 343 342 342 341 341 342 339 339 345 347 345 349 351 352 355 354 354 354 353 351 350 351 351 352 353 352 354 354 353 353 352 353 352 352 352 352 352 351 351 350 351 353 354 354 354 354 354 353 354 354 353 354 354 354 354 354 354 354 354 353 354 354 354 354 354 354 355 356 355 355 355 355 355 355 355 355 354 355 355 355 354 355 356 355 355 353 349 349 350
343 344 344 342 341 339 338 339 338 338 339 339 338 336 336 341 346 346 344 350 352 351 355 355 354 355 353 352 351 351 353 353 353 353 354 354 353 353 352 352 352 351 353 353 353 352 352 351 351 352 353 354 354 353 353 353 353 353 353 353 353 353 354 354 353 353 353 353 354 354 354 354 354 355 356 355 355 355 356 356 356 356 356 356 355 357 357 356 355 354 355 355 354 354 352 350 349
341 341 340 337 333 334 336 337 337 338 337 337 335 327 330 343 347 345 345 350 353 351 354 355 354 355 353 353 352 352 352 352 354 353 354 354 353 353 352 352 352 352 354 353 353 352 352 353 351 352 352 354 355 353 353 353 352 353 353 352 353 353 353 353 352 352 353 353 353 354 354 355 354 355 355 354 354 355 355 357 356 356 357 357 356 357 357 355 354 354 353 353 353 353 353 352 348
338 336 334 334 325 327 337 335 335 338 335 334 335 324 327 342 345 343 345 350 352 351 353 355 354 355 354 354 353 351 352 352 353 353 353 354 353 353 352 352 352 351 353 352 352 352 352 353 352 351 351 353 355 354 352 352 352 352 352 352 352 352 352 351 351 352 353 353 353 354 355 354 352 353 354 354 355 355 355 357 357 356 358 357 357 357 356 355 354 353 352 352 353 352 352 352 348
335 327 324 329 323 325 338 334 333 338 335 335 334 325 329 339 341 341 346 349 350 350 353 354 353 355 354 354 353 351 352 353 353 353 353 353 353 354 353 353 352 352 353 353 353 353 353 354 353 351 351 352 354 354 353 352 352 352 351 352 351 352 351 351 351 351 352 353 353 354 354 353 351 352 353 354 354 354 355 356 357 359 359 358 357 358 356 355 354 354 353 352 353 354 353 351 348
332 327 318 322 322 324 333 332 333 336 334 336 334 330 333 337 338 341 346 347 348 349 351 354 354 355 355 354 354 352 352 352 352 352 353 353 354 354 353 353 353 352 354 355 355 354 354 354 354 353 352 353 353 353 353 353 353 352 352 351 351 352 351 351 352 352 352 353 353 353 354 354 352 352 353 353 353 353 355 356 357 359 359 358 358 358 356 354 354 354 355 354 353 354 353 351 348
322 325 320 322 326 324 326 330 333 332 333 336 336 335 336 337 338 341 345 346 346 348 349 353 355 356 356 355 354 353 353 352 351 352 354 353 354 354 353 354 353 353 354 355 356 356 356 355 355 354 353 353 352 353 354 353 353 353 352 352 351 352 351 351 352 353 353 352 351 352 354 356 354 353 353 353 354 353 354 356 357 359 359 359 359 358 355 354 354 353 356 356 354 354 354 351 347
316 318 318 319 326 326 326 329 332 332 333 334 336 335 337 337 337 340 345 344 345 347 347 351 355 355 357 357 354 355 354 353 353 353 354 354 354 355 353 354 354 354 354 355 357 357 357 356 356 355 355 355 353 353 353 353 353 353 353 352 351 352 352 352 353 353 353 351 351 352 355 356 354 354 353 354 354 353 354 355 358 360 359 359 359 357 355 355 355 356 355 356 356 355 354 351 346
321 320 320 318 320 324 330 333 332 332 332 334 336 334 336 336 334 339 343 343 344 345 346 349 354 356 356 356 355 355 355 353 355 355 354 354 355 355 354 354 354 354 354 355 356 358 358 357 357 356 356 356 354 353 353 352 352 353 353 352 351 352 352 352 353 354 353 350 351 353 356 356 355 355 354 355 355 354 355 356 359 360 359 359 359 357 355 356 357 358 357 357 358 356 354 352 346
325 323 321 321 320 321 332 336 333 332 330 332 337 336 336 336 333 336 340 343 344 344 346 349 353 356 356 357 355 356 356 354 356 356 355 355 355 356 355 354 355 356 355 356 356 357 358 357 357 357 357 357 356 354 353 352 352 352 352 352 352 352 352 352 354 355 353 351 352 355 357 356 355 355 354 355 356 357 358 359 361 361 360 359 359 358 357 359 359 359 358 357 357 355 353 350 346
324 322 319 319 320 322 331 336 332 332 330 330 336 336 334 336 335 334 336 341 344 343 345 348 352 356 356 357 356 355 357 355 355 356 356 356 356 357 356 355 356 356 356 357 357 357 358 357 357 357 357 357 357 355 355 353 353 353 353 353 353 353 354 354 355 356 354 352 355 358 357 356 356 356 355 354 357 360 360 360 361 362 361 359 360 360 360 361 360 359 357 356 355 353 350 347 346
323 322 319 316 320 324 327 333 333 332 330 330 335 333 333 336 334 334 332 339 345 344 344 347 351 355 356 357 357 356 357 356 355 355 356 357 357 357 357 357 357 356 357 358 357 358 358 357 357 358 358 357 356 356 356 355 355 356 355 355 354 354 355 356 355 356 355 354 356 358 357 355 356 356 356 356 358 361 362 361 361 361 362 360 361 362 362 362 361 360 358 356 353 350 348 347 347
323 321 316 314 321 322 319 326 333 333 330 331 333 330 331 335 333 334 332 336 343 343 342 345 349 353 354 354 356 357 357 358 357 354 355 356 358 358 358 359 358 357 357 357 358 358 358 358 358 358 358 358 357 357 357 357 357 358 356 356 356 355 356 357 356 357 357 356 356 358 357 355 355 356 356 357 359 361 362 361 360 360 362 362 362 363 362 361 360 360 359 356 352 348 346 347 346
321 320 317 316 322 322 320 327 332 331 329 331 330 322 324 332 334 334 333 334 341 343 343 346 348 351 353 353 355 356 357 358 357 356 355 355 357 358 358 359 359 358 358 357 358 359 359 359 359 359 359 359 359 359 359 358 358 358 358 357 357 357 357 357 357 358 358 358 355 356 357 356 356 356 357 358 359 360 361 362 361 361 363 363 362 362 361 360 360 360 358 354 352 349 346 344 345
316 320 321 319 322 323 324 328 327 322 321 329 328 316 317 329 333 334 335 339 342 343 346 348 350 351 352 354 355 355 356 356 357 357 355 356 358 358 359 359 359 359 359 358 358 359 359 359 360 360 360 360 360 360 360 359 359 359 359 358 358 358 358 357 358 358 358 357 354 353 356 357 356 356 357 359 359 360 361 361 362 361 362 363 362 360 361 360 360 358 356 353 351 350 347 344 344
312 319 323 322 323 322 322 324 322 315 315 328 330 319 316 322 329 335 339 343 345 346 349 350 352 353 353 355 355 355 355 355 357 356 355 356 358 358 359 360 359 358 359 359 358 358 358 359 360 360 360 361 361 361 360 359 360 360 359 358 357 357 358 358 359 358 357 357 355 352 355 358 358 357 357 358 359 359 360 361 361 361 360 362 362 360 360 359 358 357 355 353 352 350 349 346 344
313 320 324 323 323 321 322 322 318 316 318 325 329 324 317 316 324 336 339 340 345 347 350 351 351 354 353 354 354 355 355 355 356 356 356 356 358 359 359 360 360 358 359 359 358 359 359 360 361 361 361 361 362 361 360 360 360 360 359 358 356 356 357 358 359 358 357 358 357 354 355 358 360 359 357 358 359 358 359 360 361 360 359 360 361 360 359 358 356 356 355 354 353 351 349 347 345
318 323 324 324 324 322 322 321 316 318 318 316 320 323 318 315 323 336 337 335 339 344 347 349 351 352 353 353 353 353 355 355 355 356 356 356 358 359 358 359 359 358 358 359 359 360 361 362 362 362 362 362 362 362 361 360 360 360 360 359 357 357 357 357 358 359 358 360 359 358 357 358 360 361 358 357 359 359 358 359 359 359 359 359 359 358 358 357 357 356 356 355 354 352 349 347 345
322 323 325 325 325 323 323 320 315 316 315 312 315 318 317 315 318 327 331 329 334 339 340 344 349 351 352 353 352 352 354 355 354 355 356 357 358 359 358 359 359 358 359 359 360 361 361 363 363 363 363 362 362 362 361 361 360 359 360 360 359 359 357 357 358 360 361 361 360 360 359 359 359 360 359 358 360 359 358 359 359 358 358 357 358 357 356 357 357 357 357 355 354 352 349 348 346
323 323 324 323 323 323 322 320 316 313 313 313 314 316 317 314 315 321 327 330 334 337 336 336 342 349 353 353 351 351 353 355 355 354 355 357 359 360 358 359 359 359 359 359 360 361 362 363 364 364 364 363 362 361 360 360 359 359 360 360 361 360 359 358 359 360 362 361 361 360 360 360 359 358 359 359 360 359 358 359 358 357 358 357 357 357 357 357 357 356 356 355 355 353 349 349 346
323 324 322 317 316 318 316 316 315 313 312 312 314 317 315 311 314 323 329 332 335 336 335 334 338 346 352 352 350 350 352 354 355 354 355 356 358 359 359 359 360 360 360 360 360 361 361 363 364 365 364 363 362 360 359 359 359 359 359 360 362 362 361 360 359 360 361 362 360 359 360 361 360 358 358 358 360 359 358 359 359 358 358 358 358 358 357 357 356 355 356 356 355 353 350 349 347
324 322 317 313 312 315 314 312 313 312 311 313 316 316 313 311 317 326 330 330 332 334 334 333 335 341 348 352 351 350 351 353 354 355 354 356 357 357 359 360 360 361 360 360 360 360 362 363 364 365 364 364 362 360 360 359 359 359 359 360 362 362 362 361 360 360 361 361 360 360 359 360 361 360 359 359 359 359 359 361 361 360 360 360 359 359 358 358 357 356 356 356 355 353 351 350 347
322 318 313 311 313 315 315 313 312 313 311 313 316 315 311 311 319 328 329 328 330 332 333 333 333 334 343 351 351 348 350 352 354 356 354 356 357 357 360 361 360 361 361 360 360 360 361 362 364 365 365 364 362 360 361 360 359 360 359 360 361 362 363 362 361 360 360 361 360 360 359 360 360 360 359 359 359 359 360 362 362 361 361 361 360 359 358 358 358 357 356 356 354 352 351 351 347
322 322 319 313 312 314 315 312 311 311 311 311 314 314 310 309 318 329 328 327 329 330 330 330 332 332 336 347 350 347 348 351 353 356 355 356 357 359 361 361 360 361 361 360 361 361 362 363 364 365 365 365 363 362 362 360 360 360 360 360 361 361 363 362 361 360 360 360 360 360 359 359 359 359 359 360 360 360 361 363 363 362 362 361 360 359 358 358 358 358 357 356 354 351 351 351 347
322 324 319 314 315 316 313 312 311 310 310 311 311 312 314 317 324 331 328 327 328 328 329 328 331 332 333 341 347 345 346 350 352 354 356 356 357 360 361 360 361 362 361 361 361 361 362 363 363 365 365 365 365 364 362 361 360 360 361 361 360 361 362 362 362 361 360 361 361 361 361 359 359 359 360 361 361 361 362 363 364 362 361 361 360 359 359 359 358 359 358 356 354 352 352 351 347
321 319 315 318 323 320 312 310 313 312 311 312 311 312 316 319 323 326 327 327 328 328 329 329 331 333 334 339 345 346 345 348 351 354 357 357 357 359 361 360 360 361 361 361 361 362 362 362 364 365 365 366 365 364 363 361 361 361 361 362 361 361 361 362 363 362 360 361 361 361 361 360 359 359 360 361 362 363 362 363 363 361 360 360 359 358 359 359 359 359 358 357 355 353 352 352 348
321 316 317 322 323 321 316 312 313 312 310 310 310 310 312 312 316 325 327 325 326 328 328 329 331 333 335 339 345 346 346 348 351 354 356 357 356 358 360 360 359 360 361 361 362 363 362 362 363 364 365 365 365 364 363 361 362 362 362 362 362 361 361 362 363 362 361 361 362 361 361 360 360 359 359 361 362 363 363 362 361 361 361 360 360 359 359 360 359 359 359 357 356 354 353 353 350
323 320 323 322 316 315 316 313 313 313 311 311 309 309 310 310 314 323 327 325 326 328 328 329 329 330 334 337 342 346 347 348 350 352 355 356 355 356 360 359 359 360 360 361 362 362 362 362 362 363 364 364 364 364 364 363 363 363 362 362 362 362 362 362 363 363 363 362 362 362 361 360 360 360 360 361 362 362 363 363 361 361 361 361 361 360 360 360 359 359 359 357 356 355 353 353 351
324 323 324 323 317 315 316 315 313 312 313 312 310 309 310 314 320 324 327 329 329 327 329 329 328 329 331 335 338 343 347 348 349 351 353 354 353 355 358 359 358 359 360 361 361 361 361 361 362 362 363 363 364 364 364 364 363 362 363 362 362 363 363 363 364 363 363 363 362 362 361 360 360 360 360 361 361 361 361 362 361 360 360 361 361 360 360 359 359 360 360 358 356 355 354 354 352
320 318 318 319 319 319 318 316 313 312 312 312 312 310 310 318 328 327 327 330 329 328 330 330 330 329 330 333 334 339 346 349 348 349 351 352 353 354 356 358 357 356 358 359 359 360 359 360 361 362 362 363 363 363 363 363 363 363 364 363 364 364 364 364 364 363 363 363 362 362 361 361 360 361 361 361 361 360 360 361 361 360 360 361 362 361 359 359 359 360 360 359 357 355 354 354 352
321 319 318 318 318 316 315 316 315 312 311 311 312 311 312 320 329 328 327 328 327 329 330 329 331 330 330 332 332 337 346 348 349 349 349 350 352 353 354 356 356 355 357 357 358 358 358 359 360 360 360 361 361 362 363 363 363 363 363 364 364 364 365 364 364 363 363 363 362 362 361 361 361 361 361 361 362 361 360 360 361 361 361 361 362 362 360 359 361 361 361 359 358 357 355 355 353
Wind_Speed
14 13 13 11 11 13 8 4 2 3 3 3 3 4 4 5 3 2 5 3 4 5 3 5 10 8 4 3 7 9 10 7 4 2 5 10 21 21 16 18 18 18 19 19 19 20 21 21 20 20 22 22 22 22 23 22 20 20 20 19 18 16 17 18 18 18 18 18 17 16 15 14 14 13 13 12 12 12 11 11 11 11 11 11 11 11 11 10 10 10 10 9 9 8 8 9 9
14 13 13 11 13 10 2 2 3 2 3 2 4 5 5 4 3 5 5 4 5 6 6 8 10 6 4 5 8 9 10 10 8 7 10 19 23 18 18 18 18 18 18 18 19 19 19 21 20 20 23 23 21 22 22 21 20 20 19 18 16 17 18 18 18 19 18 17 16 15 14 14 13 13 12 12 12 11 11 11 11 11 11 10 10 10 10 10 10 9 9 9 10 9 8 8 8
15 14 13 11 10 7 2 3 4 2 2 2 5 5 4 5 6 7 7 7 8 9 9 9 9 6 4 8 6 6 6 7 12 12 12 21 19 17 21 18 18 18 17 18 18 18 18 20 21 21 24 22 20 21 21 20 19 19 18 17 16 18 19 18 18 18 17 16 15 14 14 13 13 12 12 12 11 11 10 10 10 11 11 11 10 10 10 9 9 9 9 9 10 10 9 8 8
14 12 11 8 5 4 3 3 3 3 1 3 7 6 5 7 8 8 8 9 9 9 9 9 8 3 2 7 6 6 7 8 13 13 12 17 17 21 22 19 19 17 17 17 17 18 19 22 22 22 24 22 20 21 20 19 19 18 17 17 18 19 18 18 18 17 16 15 14 14 13 12 12 12 11 11 11 10 10 10 10 10 11 11 11 10 9 9 8 8 8 9 9 10 10 9 9
12 10 8 6 2 2 3 4 3 2 3 5 6 7 7 8 8 8 9 10 9 10 10 8 7 4 4 7 3 4 8 9 13 15 15 17 20 23 22 21 20 18 17 16 17 17 20 23 23 23 23 21 21 20 20 19 18 18 18 18 19 18 17 18 17 16 15 14 13 13 12 12 11 11 11 10 10 10 9 9 10 10 10 10 10 10 9 9 8 8 8 8 9 10 10 10 9
11 9 7 5 3 2 3 3 2 1 5 5 5 7 6 7 8 9 10 10 9 8 9 5 7 8 6 8 6 6 6 8 12 15 17 19 23 23 22 22 20 19 18 16 17 17 21 23 22 22 21 21 20 20 20 19 18 18 19 19 19 17 17 17 16 15 14 13 13 13 12 11 11 11 10 10 10 9 9 9 9 9 9 9 9 9 9 9 9 8 8 8 8 9 10 10 10
9 7 5 5 3 2 5 2 1 3 5 4 5 6 6 7 7 9 10 10 9 7 7 5 8 8 7 6 7 9 6 8 12 15 18 22 25 23 22 21 20 20 18 17 17 18 21 21 21 21 21 21 21 20 20 19 18 19 20 19 18 17 17 16 15 14 13 13 12 12 12 11 11 10 10 10 9 9 9 9 9 9 9 9 9 9 9 9 9 9 9 8 8 9 10 10 10
8 4 2 4 3 4 5 2 2 3 4 2 4 5 6 7 6 8 8 7 7 8 7 8 9 6 7 5 5 8 6 9 14 17 21 24 25 23 21 20 21 20 18 17 17 20 22 21 20 19 20 21 20 20 20 19 18 18 19 18 18 17 16 16 15 14 13 12 12 11 11 10 10 10 10 9 9 9 8 8 8 8 8 9 9 9 9 9 9 9 9 9 9 8 9 10 10
7 5 3 3 4 3 3 0 3 2 4 3 3 4 4 6 5 6 6 6 7 8 8 10 8 4 8 6 6 7 7 11 17 21 23 25 25 23 21 20 21 20 19 18 18 21 22 22 21 19 21 21 20 20 19 19 17 17 18 18 17 16 16 15 14 13 12 12 11 10 10 10 10 9 9 9 9 8 8 8 8 8 8 8 9 9 9 9 9 9 9 9 9 9 9 9 10
6 4 4 3 4 3 2 2 4 4 4 3 3 4 5 5 5 5 5 6 7 8 9 9 5 5 9 8 7 6 8 14 20 22 24 25 25 22 20 20 20 20 20 19 20 21 21 22 21 20 20 21 20 20 19 18 17 17 17 17 16 16 16 15 14 13 12 11 11 10 9 9 9 8 8 8 9 9 8 8 8 8 8 8 9 9 9 8 9 9 9 10 9 9 9 9 10
4 3 3 4 4 2 2 3 4 5 5 3 4 5 5 5 5 5 5 7 7 8 10 8 6 8 10 8 5 7 12 18 21 24 26 25 24 21 21 20 20 20 20 20 20 20 21 22 21 20 19 20 20 19 18 17 17 17 17 17 16 16 15 14 13 12 11 11 10 9 9 8 8 7 7 8 9 9 8 8 8 8 7 8 8 9 9 8 9 9 9 10 10 10 9 9 10
4 3 3 4 3 1 2 2 3 5 5 4 5 6 4 5 5 5 5 7 7 8 9 8 7 9 8 7 5 10 17 20 23 25 26 25 23 21 20 20 20 20 19 20 20 20 21 21 21 20 19 20 19 19 18 18 18 17 17 17 16 15 15 14 13 12 11 10 10 9 8 8 7 7 6 8 9 8 8 8 7 7 7 7 8 9 8 8 8 9 9 10 10 10 9 9 9
4 3 4 4 4 1 1 1 3 2 4 4 6 7 5 6 5 5 5 6 7 7 9 7 7 8 6 9 7 11 17 21 24 25 26 25 23 21 20 19 19 19 20 20 20 20 21 21 20 20 20 20 19 19 19 18 18 17 17 16 15 14 14 14 13 12 11 10 10 8 8 7 7 6 6 8 8 7 7 7 7 6 6 7 7 8 8 8 8 9 9 9 10 9 9 9 9
5 3 5 4 4 3 2 1 2 1 5 6 6 8 7 5 4 5 5 7 6 5 8 8 8 7 7 10 8 10 16 23 25 25 25 24 23 21 20 19 19 19 20 20 19 21 21 20 20 21 22 20 20 19 19 18 17 17 16 15 15 14 14 13 12 11 10 10 9 8 8 7 7 6 6 7 7 7 7 7 6 6 6 6 7 7 7 8 8 8 9 9 9 9 9 9 8
5 2 4 5 4 4 2 2 1 2 5 5 6 7 7 4 4 5 4 5 7 7 8 8 7 4 8 10 9 13 21 27 26 25 25 24 24 21 19 19 19 19 20 20 19 20 21 21 19 21 22 21 21 19 18 19 17 17 15 15 14 13 14 13 12 11 10 10 8 8 7 7 6 6 5 6 6 6 7 6 6 6 5 6 6 6 6 7 7 8 9 8 8 9 9 9 8
5 3 4 4 5 2 2 2 2 2 4 4 5 7 7 5 5 5 3 4 8 9 7 7 6 1 6 9 11 20 27 28 27 26 25 24 23 21 20 19 18 18 19 20 20 20 21 22 20 20 22 21 20 19 18 19 17 16 15 15 14 13 13 12 11 10 9 9 8 7 7 7 6 5 5 5 5 5 6 6 5 5 5 5 5 5 6 6 7 7 8 8 8 8 9 9 8
4 4 5 4 4 1 2 2 2 1 4 5 4 6 6 6 6 5 5 5 8 10 6 6 7 1 3 9 19 28 30 29 28 27 26 24 22 21 20 19 19 18 18 19 21 22 22 22 20 19 21 21 19 18 18 18 17 16 15 14 14 13 13 12 11 10 9 8 7 7 6 6 6 5 5 4 4 4 4 5 5 5 5 5 5 5 5 6 6 6 7 7 7 7 8 8 8
5 4 5 4 3 0 3 4 5 3 4 5 2 7 6 6 8 6 7 7 8 10 7 7 7 4 6 16 26 30 30 30 29 28 27 24 23 22 21 20 19 18 19 19 20 22 22 20 20 20 20 21 19 18 17 17 17 16 15 14 13 13 12 11 10 9 8 8 7 7 6 5 5 5 5 4 4 3 3 4 5 4 4 5 6 6 6 6 6 6 7 8 8 8 8 6 5
7 4 4 4 1 2 3 4 6 5 7 6 1 7 6 5 8 7 7 8 10 11 9 10 9 9 12 20 28 30 30 30 29 29 28 26 25 24 23 22 22 20 20 20 20 21 20 19 21 21 20 21 20 18 17 16 17 16 14 14 13 12 12 11 11 10 9 9 8 7 6 5 5 5 5 4 3 3 3 4 4 3 4 5 6 6 6 6 6 6 7 8 8 8 6 4 3
7 6 5 3 1 1 1 2 4 7 9 7 1 5 6 5 7 7 6 7 10 9 9 11 11 13 16 20 26 29 29 30 29 29 27 26 26 25 25 24 24 23 21 20 21 21 21 20 21 21 20 20 20 18 17 16 17 16 14 14 13 12 12 12 11 11 10 9 8 7 6 5 5 5 4 4 3 3 2 3 3 3 3 4 6 5 4 5 5 6 7 7 7 6 4 4 4
6 7 6 1 1 4 3 0 4 6 9 7 3 3 6 4 5 7 5 5 7 8 10 12 13 17 19 20 24 27 28 28 29 28 28 27 26 26 25 25 25 25 23 20 20 22 21 20 20 20 19 20 19 18 17 16 16 15 14 14 13 13 13 12 12 11 10 10 9 7 6 6 5 5 4 4 3 3 3 3 2 3 3 3 4 3 3 3 4 5 6 5 6 5 3 3 4
5 8 9 5 4 3 3 1 4 6 7 5 2 1 3 5 7 8 7 5 2 3 9 12 13 18 21 22 23 25 25 26 27 27 28 28 27 26 25 25 25 25 24 21 21 22 21 21 20 20 19 20 19 17 16 15 16 15 15 14 13 13 12 12 11 11 10 10 9 7 7 6 6 5 5 4 4 3 3 3 3 3 2 2 2 2 3 2 2 3 4 4 4 4 3 3 3
7 8 8 8 9 7 3 5 6 6 7 4 3 2 2 6 8 8 10 8 1 4 6 10 13 18 21 23 22 23 24 24 25 27 28 29 28 27 26 26 26 25 24 23 22 21 22 22 21 21 20 20 20 18 16 16 16 15 14 14 14 13 12 12 11 10 10 10 9 7 7 7 6 5 5 5 4 4 3 3 3 2 2 2 2 2 2 2 2 3 4 3 3 3 3 2 2
10 8 8 8 9 10 8 8 8 8 7 6 6 5 5 8 7 7 11 10 2 4 7 11 14 19 22 22 22 22 23 24 25 27 27 27 28 27 25 25 24 24 24 24 23 22 22 22 23 22 21 21 21 19 17 16 16 15 14 14 14 13 12 12 11 10 9 10 9 8 7 6 6 6 5 5 5 4 3 3 3 2 2 1 1 1 1 2 2 2 2 2 2 2 2 2 2
13 11 8 7 9 9 9 9 10 9 7 7 8 9 9 8 8 7 9 10 6 4 8 13 16 19 20 21 22 21 21 22 24 26 25 24 25 25 24 23 23 23 24 25 25 23 23 23 24 23 21 22 21 19 18 16 15 15 14 14 14 13 12 11 10 10 9 9 9 9 7 6 6 6 6 5 5 5 4 3 3 2 2 1 1 1 1 2 2 2 2 2 2 1 2 2 1
12 14 10 9 11 10 10 10 11 9 7 7 9 11 9 8 9 9 9 10 9 8 11 15 18 19 19 19 20 20 20 22 23 25 24 23 24 25 23 23 23 23 24 25 25 25 24 23 23 23 22 22 21 19 18 16 15 15 14 14 14 13 12 11 10 10 9 9 9 9 9 7 6 6 6 6 5 5 4 4 3 2 2 1 1 0 1 1 1 2 2 2 2 2 2 2 1
6 11 11 12 12 10 10 12 11 9 8 9 11 11 9 8 8 7 7 10 12 12 14 16 17 18 18 18 18 19 20 22 24 24 23 23 24 25 24 23 23 23 23 24 24 24 25 24 23 23 22 21 21 19 18 17 16 16 15 14 13 13 12 11 11 10 10 9 9 10 10 8 7 6 6 6 5 5 4 4 3 3 2 1 1 0 0 1 1 1 2 2 3 3 4 3 1
5 7 9 12 13 12 12 13 12 9 8 10 11 11 9 7 9 9 6 11 15 14 15 17 16 16 17 18 18 16 17 21 24 23 23 23 23 24 25 24 24 23 23 24 24 23 24 25 24 23 22 21 20 19 18 17 16 16 15 14 13 13 12 12 11 10 10 10 9 9 9 9 8 6 6 6 5 5 5 4 3 3 2 1 1 1 0 0 1 1 1 2 3 4 4 3 2
9 8 9 12 12 13 14 14 12 9 8 8 8 10 10 11 13 13 9 11 15 15 15 17 16 15 16 17 16 14 16 21 23 22 24 24 23 24 24 24 25 24 23 23 23 23 23 24 24 23 22 22 21 20 18 17 16 15 15 14 13 13 13 12 11 11 10 10 10 10 10 10 9 7 7 7 6 6 5 5 4 3 2 2 1 1 1 1 1 1 1 2 3 4 4 3 2
10 10 9 9 10 12 13 14 12 11 9 7 7 7 7 12 15 12 10 14 15 15 15 16 15 15 15 15 15 15 17 20 22 23 24 24 23 24 25 24 25 24 22 23 24 23 23 22 23 23 22 22 21 20 18 16 16 15 15 14 13 13 12 12 12 11 11 10 10 11 11 11 10 9 8 7 7 7 6 5 5 4 3 2 2 2 1 1 1 1 1 2 4 4 3 3 2
9 10 9 7 8 8 8 9 10 10 8 8 8 6 5 8 12 11 10 14 16 14 15 15 15 14 14 15 15 15 17 19 23 24 25 25 24 23 25 25 25 24 21 23 25 24 23 22 22 22 23 23 21 20 18 16 16 15 15 14 13 13 13 13 13 12 12 11 11 11 12 12 11 10 9 8 8 7 7 6 5 4 3 3 2 2 2 1 1 1 1 2 3 4 3 3 3
8 8 8 9 9 7 8 9 10 10 9 11 10 7 7 5 7 9 11 13 15 13 14 15 16 16 15 15 16 15 16 19 23 25 25 26 24 22 24 25 25 25 22 22 24 24 23 22 22 21 23 24 22 21 20 18 17 16 15 14 14 14 14 14 13 13 12 12 12 12 12 13 12 11 10 9 8 8 7 6 5 4 3 3 3 3 3 2 2 2 2 3 4 4 3 3 2
8 8 9 10 11 10 8 9 9 11 8 10 11 8 8 4 5 8 11 12 14 12 13 16 16 16 16 14 15 15 15 18 20 23 26 26 24 23 24 25 26 25 23 22 24 25 24 23 23 22 23 25 24 23 21 19 18 17 16 15 15 15 15 14 14 13 12 12 12 12 12 13 12 12 11 11 10 9 8 7 6 4 4 3 3 4 3 3 2 2 3 3 3 4 4 3 2
8 9 9 10 10 10 8 7 8 9 8 10 12 10 10 6 4 8 10 11 12 11 12 15 15 15 15 14 14 15 16 17 18 22 27 27 25 24 24 25 26 25 23 23 24 25 25 24 23 22 22 24 24 23 22 21 19 17 16 16 15 15 15 14 14 14 13 13 13 12 12 13 13 12 12 11 10 10 9 8 6 5 5 4 4 5 4 4 3 3 3 3 3 3 3 2 2
11 11 9 10 10 9 10 7 6 8 9 10 11 11 12 11 7 7 10 10 11 11 10 12 14 15 15 14 14 15 16 18 18 23 28 27 26 25 24 24 25 25 24 23 24 24 24 23 23 22 21 22 23 23 23 21 19 18 17 17 16 16 16 15 14 14 14 13 13 12 12 12 12 12 12 11 11 10 9 9 7 6 6 5 5 5 5 5 4 4 4 4 3 3 3 2 1
13 13 10 12 11 10 13 8 4 5 8 11 13 12 11 11 8 6 9 10 10 10 10 10 13 14 15 15 14 15 17 17 19 24 28 27 26 25 25 24 25 25 24 24 24 24 24 24 23 23 22 22 23 23 23 22 21 20 19 18 18 18 18 17 15 15 14 14 13 12 13 13 12 12 12 11 11 10 10 9 8 7 7 6 6 6 6 5 5 5 5 4 3 3 3 3 2
11 12 11 14 13 10 12 9 5 5 8 11 13 13 12 10 8 7 8 10 10 10 11 12 13 14 15 16 16 17 16 15 18 23 26 27 26 26 25 24 24 25 24 24 25 25 25 25 24 24 23 22 23 24 23 23 22 21 21 20 19 19 18 17 16 15 15 14 13 13 13 13 12 12 12 11 11 11 10 9 8 7 7 7 7 7 6 6 6 6 5 4 4 3 3 3 3
10 11 10 12 13 11 12 8 6 6 7 11 12 13 14 12 11 10 8 10 11 11 13 14 15 15 15 17 18 17 14 13 17 20 24 27 26 26 26 24 25 26 25 25 26 25 25 26 25 24 24 24 24 24 23 23 22 21 20 20 18 17 17 17 16 15 15 14 13 13 13 12 12 12 12 12 12 11 10 9 8 8 8 7 7 7 7 7 7 7 5 5 4 3 3 2 4
11 10 10 11 12 12 12 9 7 7 6 9 13 13 14 13 12 11 9 10 11 11 13 14 15 16 15 16 16 16 15 15 17 19 22 26 27 27 26 24 26 27 26 26 26 26 26 26 26 25 24 25 25 24 24 23 22 20 19 18 17 16 15 16 15 14 14 14 14 14 15 14 13 13 12 13 12 11 11 10 9 9 8 8 7 7 7 8 8 7 6 5 4 3 2 3 4
12 11 10 11 12 11 10 9 9 9 7 10 13 11 12 12 12 12 12 12 11 12 14 14 14 15 15 16 15 16 17 17 18 19 20 23 26 27 26 24 25 26 26 27 26 27 26 27 27 26 26 26 25 26 25 23 21 20 18 16 16 14 13 14 14 13 14 15 15 15 15 15 15 14 13 14 13 12 11 11 10 9 8 8 8 8 8 8 7 6 6 5 4 4 2 3 4
14 16 14 12 13 14 10 6 6 6 8 10 11 10 11 13 14 14 12 12 13 12 13 14 13 14 14 15 15 16 17 17 18 19 19 21 24 26 26 25 25 26 27 27 27 27 26 26 27 27 26 25 25 26 25 22 21 20 18 16 15 14 13 14 15 15 15 16 16 15 15 16 16 15 14 15 14 13 12 11 10 9 9 9 9 9 8 8 7 7 7 6 5 4 2 3 4
13 17 18 16 13 14 13 8 6 6 8 9 9 10 10 12 16 16 9 10 12 11 12 14 13 13 13 14 14 15 17 17 17 19 19 20 22 25 26 26 26 26 27 28 28 27 26 25 27 27 26 25 25 25 25 23 22 21 20 19 18 17 16 17 17 17 16 17 17 16 15 15 16 16 15 15 15 14 13 12 11 11 10 10 10 10 10 8 7 7 7 5 5 4 3 3 4
11 13 17 19 17 15 14 12 9 8 8 8 8 10 9 10 14 12 8 9 11 11 12 13 13 13 13 13 14 15 16 17 17 18 19 20 22 24 26 28 29 28 28 28 27 27 27 26 27 28 26 25 24 25 26 25 22 22 22 22 21 19 18 18 18 17 16 16 16 16 15 15 16 17 16 16 16 15 14 13 13 12 12 11 11 11 10 8 7 7 6 5 4 4 4 5 4
11 10 11 16 19 18 15 13 10 9 9 8 9 10 10 10 12 11 10 11 12 12 13 13 13 14 15 14 15 16 17 17 17 18 20 20 22 25 27 30 30 28 27 27 27 28 28 27 27 28 26 25 23 24 27 26 23 22 23 22 21 20 19 17 16 16 15 15 15 16 16 15 16 17 17 17 17 17 16 15 15 14 14 13 11 11 10 8 7 6 6 6 5 5 6 6 5
11 7 6 10 14 17 15 12 11 10 10 10 11 12 10 10 12 12 12 13 13 13 14 14 14 15 16 16 17 18 18 18 18 19 20 21 23 27 29 30 29 28 27 28 28 27 28 28 27 27 27 25 24 25 27 27 24 23 22 22 21 20 19 17 15 15 16 15 15 16 16 15 15 16 18 18 17 17 17 17 16 16 15 14 12 11 10 8 8 7 7 7 6 6 7 7 5
12 7 5 8 10 12 13 11 10 10 11 13 14 14 11 11 11 11 13 14 14 14 13 14 15 16 16 16 17 18 17 17 18 20 20 22 25 28 28 28 28 28 28 28 27 26 27 27 27 27 27 25 25 26 26 26 25 23 22 22 22 20 19 18 16 15 16 16 16 16 16 16 16 16 17 18 18 18 18 17 17 17 16 14 13 12 10 9 9 9 8 8 7 7 8 8 7
13 9 7 8 8 9 10 9 8 10 13 14 16 16 13 12 11 11 12 12 13 14 13 13 15 16 17 17 17 17 16 16 17 19 19 22 26 28 27 27 28 28 27 27 27 27 27 27 28 28 28 26 25 25 26 25 24 24 22 22 23 22 20 19 18 17 17 17 18 18 17 16 16 16 16 17 18 19 18 18 17 17 16 15 14 13 11 10 9 9 9 8 8 9 9 9 8
13 9 8 8 7 7 7 7 9 11 12 11 14 18 16 15 11 9 12 14 15 14 13 14 14 16 17 16 16 16 16 17 17 17 18 19 22 24 26 27 29 28 28 28 28 28 28 28 28 29 29 27 26 26 27 26 26 26 24 23 24 23 22 22 21 20 19 19 18 18 17 16 16 17 17 16 18 19 19 18 18 17 16 15 15 14 12 11 10 9 9 9 9 10 10 10 10
13 10 9 9 7 7 8 9 10 11 10 8 10 14 15 15 12 10 12 14 16 15 13 14 14 15 16 16 16 15 15 17 17 17 17 18 18 20 23 27 29 29 30 30 30 30 29 29 30 30 30 30 28 28 29 29 28 27 26 26 24 23 24 24 23 22 21 20 19 18 18 17 17 18 18 18 18 18 19 19 18 18 17 16 15 14 13 12 11 10 9 10 11 11 12 12 11
13 11 10 10 8 8 9 9 9 9 9 10 10 9 11 13 10 14 17 14 13 13 12 13 13 13 14 16 17 15 16 17 16 17 17 17 18 19 22 27 29 30 31 32 31 31 30 29 31 31 31 31 31 30 30 30 29 28 27 27 25 24 25 24 24 23 22 21 20 20 20 19 19 19 20 20 19 18 18 18 18 18 17 16 15 15 14 13 13 12 11 11 12 12 12 13 12
14 12 11 11 9 8 7 7 9 9 8 11 12 8 8 8 2 6 14 16 15 14 14 14 13 13 13 14 16 15 16 17 16 17 18 19 20 21 23 27 29 30 32 33 32 31 30 30 32 32 32 32 33 32 32 31 30 29 29 28 27 26 24 23 24 23 23 22 21 21 21 20 20 20 20 20 19 19 19 19 19 19 18 17 16 15 15 15 14 13 13 13 13 12 13 14 13
12 12 11 11 10 8 5 4 6 6 6 9 11 8 6 4 0 1 5 10 15 15 15 16 15 15 14 14 15 15 15 16 17 17 19 20 21 22 24 27 29 31 32 33 32 32 32 31 32 33 33 33 34 34 33 32 31 30 30 29 29 27 24 23 24 24 24 23 22 21 21 22 21 19 18 19 19 20 20 19 19 19 19 18 16 15 16 16 15 15 14 14 14 13 14 15 14
9 12 13 12 11 10 7 5 4 4 7 7 8 9 8 5 6 8 9 9 11 13 13 14 14 14 14 13 13 15 15 16 17 17 18 20 21 22 25 28 29 30 32 34 35 35 34 32 31 33 33 33 34 35 34 32 32 31 31 31 30 28 27 25 24 25 24 22 21 22 21 21 22 21 19 19 19 20 21 20 20 19 19 19 18 16 17 17 16 16 16 15 15 14 15 16 15
8 11 13 11 11 11 8 7 6 6 9 8 9 12 10 8 7 8 15 15 13 14 14 14 14 13 13 13 13 15 16 16 18 19 18 19 20 21 24 28 30 31 33 35 36 35 34 33 32 32 33 34 35 35 35 34 33 33 31 31 30 29 29 27 24 24 24 22 22 22 22 22 22 22 20 19 19 20 21 21 20 19 19 19 19 18 18 17 17 17 17 16 16 16 16 16 16
12 9 11 11 10 10 8 7 8 9 9 8 11 13 10 9 6 4 11 15 15 15 15 14 15 14 14 14 15 16 16 15 16 17 16 17 19 21 25 29 32 34 34 35 35 34 34 34 33 33 35 36 35 33 33 34 34 33 32 31 32 31 30 28 26 24 23 24 24 23 23 23 22 22 22 21 20 20 21 21 22 21 20 20 20 19 19 19 18 18 18 16 16 17 18 17 16
15 10 11 11 8 8 9 8 7 8 8 7 9 10 8 8 9 8 8 10 11 13 13 14 15 15 14 14 14 15 15 14 14 15 16 18 20 23 27 30 31 32 32 31 32 33 34 34 34 34 34 33 33 32 33 34 34 34 32 32 32 32 31 29 28 25 24 25 25 24 24 23 23 22 22 22 22 22 22 22 22 22 21 21 21 20 20 20 19 19 19 17 16 18 19 18 16
14 12 12 12 9 6 7 9 8 8 8 7 7 7 4 1 5 11 12 11 10 10 11 11 12 14 14 13 13 13 14 14 15 15 17 19 19 21 26 28 28 28 29 28 30 32 33 33 33 34 34 33 34 34 33 34 34 33 33 33 33 33 32 31 29 27 26 25 25 25 24 23 23 23 23 23 24 24 24 23 22 22 22 22 21 21 21 20 20 21 20 18 17 19 20 19 17
15 12 12 13 11 9 8 9 10 9 8 7 6 6 3 3 3 5 7 9 10 10 10 10 10 12 12 12 12 11 11 13 14 14 15 16 16 17 21 24 25 27 28 30 31 31 32 32 33 34 34 34 35 35 35 34 33 33 34 34 34 33 33 32 30 28 28 27 26 26 26 24 24 24 24 24 24 24 25 25 24 23 23 22 22 22 22 21 22 22 21 19 19 20 21 20 18
Wind_Direction
154 153 157 157 163 162 171 210 257 189 237 288 66 72 70 61 57 73 96 123 118 107 90 119 133 138 130 118 115 77 43 49 38 61 100 121 136 141 143 140 138 137 137 135 137 140 141 140 143 145 143 145 142 137 134 131 129 128 128 127 129 133 137 137 132 124 116 109 105 103 102 100 99 97 95 92 89 85 81 79 77 75 75 76 76 75 74 73 72 73 74 73 77 81 90 94 94
162 161 163 154 159 173 179 215 263 193 207 300 56 57 80 103 102 74 78 88 86 109 129 128 130 123 95 115 118 80 53 51 71 86 102 128 133 136 142 141 139 138 137 137 140 142 144 142 144 148 147 147 142 137 134 131 131 129 128 130 135 139 142 139 130 121 113 109 106 103 102 101 99 97 94 91 88 83 80 77 74 74 74 75 74 73 71 69 70 72 72 72 72 75 83 90 93
166 166 164 154 170 204 262 206 264 317 181 113 76 58 78 85 71 71 78 87 96 120 127 126 127 113 127 142 118 82 82 72 97 106 117 134 135 139 144 143 141 139 137 138 141 144 147 144 144 146 147 145 139 137 135 133 131 129 131 136 142 144 144 137 126 118 112 110 107 104 103 101 99 95 92 89 86 82 78 74 72 72 72 73 72 73 72 70 71 72 73 72 70 73 80 88 94
167 172 172 165 193 225 244 236 276 313 352 68 77 70 63 66 71 81 92 106 118 130 131 132 123 71 106 128 107 94 105 96 108 118 133 143 140 141 145 144 142 140 138 139 141 142 147 147 144 145 146 144 138 138 137 135 133 132 137 141 145 146 142 134 124 118 114 112 110 106 103 101 97 92 89 87 84 80 75 73 70 69 70 71 70 72 72 71 72 73 73 72 73 75 78 86 93
168 178 186 188 241 269 275 271 257 279 29 34 67 78 70 75 85 94 106 121 134 140 140 142 122 98 76 79 72 100 104 108 119 129 139 142 140 142 145 144 143 142 139 139 139 139 146 148 146 147 145 142 140 140 140 137 136 139 143 144 146 143 137 131 125 120 118 116 113 108 104 100 95 90 87 84 82 78 72 69 67 66 68 68 67 68 67 70 71 72 74 73 74 76 79 81 88
169 175 183 208 270 314 279 262 243 32 55 18 56 79 77 84 94 107 115 126 137 141 142 144 129 132 102 68 56 76 97 117 127 138 141 140 143 145 144 145 146 144 141 139 138 138 145 147 147 149 146 144 144 142 141 140 141 145 145 146 145 138 134 132 128 124 123 121 117 112 107 101 96 90 85 83 79 75 71 67 66 65 67 67 66 66 65 67 70 71 73 72 71 75 78 78 83
176 174 177 222 256 240 259 270 13 54 70 9 40 76 90 97 105 119 126 131 137 144 148 141 133 134 109 107 87 71 85 120 131 142 141 141 145 146 145 147 146 145 143 140 137 139 144 144 146 150 148 148 147 144 142 141 144 148 147 145 141 136 135 135 132 130 129 126 122 116 110 103 96 90 84 81 75 72 70 66 65 65 65 67 67 67 67 66 67 68 70 70 70 74 79 76 77
198 205 214 249 245 210 258 306 57 43 76 40 38 62 88 110 125 130 130 135 142 151 155 149 153 134 103 134 108 89 108 122 132 138 139 143 146 147 148 148 147 147 144 142 139 142 145 143 147 150 150 150 148 145 143 144 148 150 147 143 140 138 139 139 137 134 133 130 126 120 112 104 97 90 85 78 72 70 68 67 66 65 65 68 70 69 68 68 67 66 68 69 67 70 79 80 75
211 232 249 256 264 233 250 52 94 71 84 110 95 78 104 127 137 136 131 128 140 155 154 156 173 140 114 122 98 112 123 120 130 137 142 146 148 150 150 150 149 149 146 144 141 144 147 145 148 149 149 149 147 146 144 145 150 151 147 144 143 142 143 142 140 138 138 135 130 123 115 106 99 92 86 77 72 70 68 68 68 70 69 71 72 71 70 70 70 68 67 67 67 67 72 79 77
213 226 270 270 271 259 204 102 94 101 98 106 108 120 147 145 144 141 132 124 136 150 145 153 171 134 122 115 103 122 130 132 137 141 147 148 150 152 151 153 150 150 149 145 143 146 150 149 149 149 150 149 147 147 146 148 151 153 150 148 148 147 147 145 143 142 141 138 133 128 119 110 103 96 88 80 71 69 71 70 72 76 76 75 73 73 73 70 70 69 68 67 68 71 70 75 77
229 207 264 273 259 265 75 78 93 104 110 120 119 137 156 151 152 141 128 125 140 143 140 161 161 137 125 116 106 118 136 144 145 147 150 151 152 153 152 153 152 152 151 147 146 148 152 152 149 150 152 151 150 149 150 152 153 156 155 155 154 151 150 147 146 145 144 142 136 131 124 116 107 100 90 79 71 70 74 75 77 81 79 76 73 71 71 69 69 69 68 68 68 71 73 75 75
249 223 238 271 280 11 37 47 85 93 119 139 131 138 156 159 154 137 134 130 145 148 154 177 148 144 142 123 115 130 146 150 149 151 152 153 154 154 153 153 155 154 152 150 148 149 153 154 152 151 154 153 152 151 152 155 156 159 159 159 158 156 152 149 150 148 147 145 141 136 130 122 112 105 90 78 73 74 77 77 80 81 79 75 74 72 68 69 68 69 71 69 69 69 71 74 73
244 265 262 272 298 334 326 20 86 102 128 118 124 137 154 165 159 136 132 131 153 159 159 164 139 157 139 109 126 143 153 151 151 153 152 156 157 156 155 154 157 156 155 153 150 152 153 155 155 154 156 156 154 154 156 158 159 161 161 161 161 160 156 154 154 152 151 149 144 140 133 126 118 110 92 80 74 77 81 79 80 79 78 77 77 75 69 70 68 69 73 73 72 70 69 70 71
234 276 286 281 292 276 270 128 105 133 107 95 118 140 160 168 154 135 133 138 141 130 130 139 149 157 120 116 144 153 156 153 153 154 155 158 157 157 157 156 159 158 158 156 154 155 157 158 157 157 158 157 157 158 161 163 163 163 164 164 166 164 160 159 159 157 156 153 146 139 135 130 124 114 98 86 77 79 82 77 81 79 78 79 79 79 73 73 71 70 73 73 74 74 72 70 69
236 277 278 276 279 248 194 118 96 105 86 90 128 144 164 149 146 153 148 138 111 104 118 140 168 155 140 155 161 159 158 153 154 155 156 158 158 159 156 157 160 161 163 160 159 158 161 162 159 160 160 161 161 161 164 167 167 166 167 169 170 168 165 165 163 162 160 155 147 141 138 133 131 122 107 95 84 83 83 76 81 82 78 78 80 83 77 73 71 71 71 66 65 69 69 70 69
237 274 260 263 271 233 140 140 146 134 65 71 132 153 164 138 159 157 109 110 112 137 144 146 172 124 150 164 149 154 155 153 155 155 157 158 159 160 158 160 161 165 169 166 165 163 165 166 162 164 164 164 164 163 166 168 171 169 170 174 173 172 171 169 168 168 164 158 152 147 141 136 140 131 115 104 92 91 97 96 90 86 81 79 80 81 80 71 63 62 65 61 56 59 61 65 67
220 252 250 253 255 233 111 117 82 74 41 56 142 175 171 143 159 133 113 144 137 158 159 133 154 88 130 139 139 149 152 154 156 156 158 158 160 164 163 164 164 168 174 173 172 169 169 168 165 167 168 167 167 167 166 167 173 172 174 177 177 177 174 173 173 172 169 164 161 155 145 146 154 143 125 118 104 89 103 111 98 92 90 85 84 84 80 71 62 52 47 52 54 55 60 58 55
210 229 241 248 248 29 55 49 39 13 10 26 175 196 189 161 162 147 156 171 151 162 156 134 138 95 105 126 137 148 152 156 159 160 160 161 166 167 166 169 170 172 176 177 176 174 172 170 169 169 170 169 168 168 167 169 174 174 175 178 180 180 176 176 176 175 174 172 171 165 159 164 161 149 137 132 121 107 116 122 110 108 105 92 95 94 84 69 60 49 32 39 48 48 57 57 49
216 229 237 247 269 66 56 25 24 5 352 354 255 203 210 184 167 170 181 171 159 168 160 151 143 119 120 132 142 150 155 159 163 166 164 167 170 170 169 171 174 174 177 178 178 179 176 173 173 172 172 171 170 170 169 171 174 175 177 178 180 181 179 180 180 180 182 180 178 176 175 175 163 157 157 151 142 136 142 138 127 119 115 103 98 89 73 65 60 58 42 40 46 42 44 53 67
219 233 240 241 286 277 255 323 355 4 354 349 23 186 214 189 163 183 194 170 173 185 170 166 160 142 138 143 149 153 160 164 167 170 169 171 173 172 172 172 175 177 179 179 178 181 180 178 177 174 173 172 172 173 173 174 175 179 181 181 181 182 184 185 186 187 188 186 181 182 182 176 169 169 168 161 151 149 151 146 127 107 114 106 95 82 63 62 60 57 45 42 45 39 36 43 62
211 221 243 259 289 247 191 27 349 1 354 357 48 166 207 187 178 199 201 180 191 204 185 179 170 153 149 152 156 158 164 168 172 175 173 174 176 176 176 175 176 178 180 180 178 181 182 181 179 176 175 175 177 177 177 178 178 182 184 184 184 184 187 188 190 191 191 190 185 186 184 178 179 174 169 169 165 165 162 154 140 118 123 107 87 87 74 53 56 56 40 41 42 37 37 37 50
224 220 244 256 260 243 142 20 333 348 341 352 42 223 199 178 203 214 210 206 192 188 184 181 171 157 155 158 160 163 168 172 175 178 176 177 179 178 177 177 177 178 181 182 180 181 182 182 180 177 178 179 181 181 181 182 181 185 186 185 185 186 188 189 191 192 192 190 188 191 187 183 186 180 173 176 178 175 172 165 155 140 133 119 90 87 84 45 48 63 48 46 40 40 43 32 45
236 226 231 236 249 257 259 294 299 318 317 320 346 316 216 203 219 216 212 221 35 72 165 172 164 159 156 159 163 168 172 175 179 180 179 178 179 179 177 177 178 178 181 184 183 182 182 183 181 180 180 181 183 184 183 183 185 188 186 185 187 187 187 190 192 192 191 190 190 192 191 188 188 186 178 180 185 182 181 173 159 150 146 129 105 75 72 46 34 45 47 44 27 38 49 49 51
231 241 231 228 242 251 259 274 279 289 289 287 300 287 242 232 236 217 212 222 232 82 149 157 153 156 158 162 169 174 174 178 181 181 181 180 180 180 177 177 178 178 180 183 183 183 184 184 183 183 181 182 184 185 184 184 187 189 187 186 189 189 188 192 193 191 190 191 193 193 195 193 190 189 184 185 190 186 179 171 164 161 160 135 115 77 52 38 31 34 37 34 23 30 36 55 62
224 241 243 239 245 250 256 262 268 273 271 271 273 266 250 240 249 242 222 213 203 154 146 147 149 157 163 168 172 175 177 180 182 181 182 182 181 180 178 178 178 179 181 182 183 183 185 184 185 185 183 184 185 185 186 185 188 191 189 187 190 191 192 195 193 191 191 192 195 195 195 195 194 193 189 191 191 185 179 174 173 166 160 152 145 72 41 20 12 21 14 11 13 4 3 23 41
215 232 244 249 253 255 259 261 262 263 259 259 259 261 255 238 245 250 233 210 192 162 150 148 153 162 167 172 174 176 178 181 182 182 182 182 181 182 181 180 181 181 180 181 183 184 184 185 186 186 185 186 187 187 188 188 189 192 191 189 190 191 195 197 193 194 194 193 196 197 197 197 198 196 191 194 196 190 184 183 183 178 177 179 194 28 44 2 354 359 353 353 352 342 341 350 8
194 222 241 250 259 260 260 260 257 261 258 252 254 262 260 234 227 238 225 197 180 163 158 156 159 168 170 174 177 178 180 182 182 181 182 182 183 185 183 183 183 181 179 180 182 184 184 185 187 188 187 187 188 190 191 191 192 192 193 193 192 192 196 196 196 198 196 195 196 196 198 198 199 199 193 194 198 195 192 191 193 194 195 194 215 301 8 346 338 344 345 347 347 333 322 329 348
224 233 252 250 257 256 251 254 251 252 255 248 248 257 258 226 211 227 217 174 173 173 167 163 167 171 172 175 176 179 182 183 182 182 184 184 185 186 186 185 184 182 181 181 181 182 184 185 187 188 188 188 190 192 192 194 195 194 195 195 196 196 195 196 199 201 199 198 195 193 197 198 200 201 197 197 198 198 198 198 199 204 209 214 229 262 283 283 281 324 351 345 342 330 319 323 339
241 245 262 256 257 254 242 241 239 234 241 244 243 251 242 214 210 219 203 170 176 183 175 170 172 172 174 176 176 180 183 182 183 186 187 186 186 187 188 187 185 184 183 182 181 180 183 185 187 189 190 190 191 194 193 195 196 195 197 196 197 197 195 198 201 202 202 199 196 194 197 200 201 199 201 202 203 205 205 209 210 209 214 224 238 256 259 239 240 306 344 337 328 322 324 337 333
236 234 254 261 257 249 234 229 224 223 230 228 229 246 227 202 207 213 188 175 184 188 182 177 176 173 175 178 177 181 183 184 186 188 188 188 188 189 190 190 188 186 183 182 182 181 181 182 185 189 192 192 193 195 194 195 196 196 198 197 197 199 198 200 203 204 204 200 198 198 199 203 202 199 203 205 209 213 211 213 218 215 214 224 243 250 249 228 212 259 298 318 312 307 312 328 326
228 229 235 246 251 233 203 201 207 211 200 190 212 244 238 193 190 196 179 179 189 193 188 183 181 177 176 178 179 181 183 188 189 188 188 188 190 190 191 191 190 190 186 184 185 183 182 182 184 187 191 193 193 195 194 194 196 197 197 197 198 199 200 202 205 205 203 202 200 200 202 205 206 204 204 207 212 218 217 215 217 216 213 224 239 233 234 231 212 240 257 279 291 297 303 313 319
216 224 223 222 236 225 179 169 196 215 190 183 212 237 242 205 168 178 174 182 194 197 195 188 185 181 178 180 181 182 183 188 191 190 190 189 189 190 191 191 190 191 188 185 185 184 185 184 184 186 189 192 193 194 194 194 195 197 198 198 199 200 202 204 206 205 203 202 201 202 205 207 209 210 209 212 216 222 223 219 217 213 212 229 233 225 234 235 217 227 239 262 278 288 295 307 311
209 219 232 219 218 223 198 169 193 222 211 197 215 234 239 207 144 168 175 187 196 201 202 194 191 185 182 183 182 183 182 185 192 193 192 190 190 190 191 191 190 191 188 185 184 184 186 184 185 187 187 190 192 193 194 195 195 197 198 200 201 202 205 207 207 207 205 203 202 202 205 207 210 211 212 215 219 225 228 225 221 214 215 230 230 229 235 233 232 229 228 252 272 282 287 301 307
204 208 233 231 220 226 209 167 169 204 221 215 213 228 243 232 174 174 181 191 198 206 209 197 195 189 185 187 185 184 182 184 191 193 192 190 190 190 190 191 190 191 189 186 184 184 185 184 185 188 187 188 191 192 193 195 196 197 200 202 204 205 209 211 209 208 207 205 205 204 203 205 208 211 213 216 219 225 230 230 226 218 219 228 231 234 237 234 241 236 224 238 261 279 286 295 296
210 205 218 229 223 232 228 199 159 187 223 230 222 225 235 240 227 187 184 194 200 211 215 203 198 193 188 189 191 188 184 187 190 191 191 190 189 189 190 190 189 190 190 188 186 185 186 186 186 187 187 187 189 191 193 196 197 199 202 204 206 209 211 214 212 211 211 209 208 205 204 204 207 211 213 215 219 224 229 231 228 225 225 229 233 236 235 233 233 234 229 233 249 270 279 284 264
223 216 216 225 221 226 232 221 166 198 241 240 239 241 239 243 238 194 185 194 202 213 217 208 201 197 193 191 194 193 190 189 188 189 190 189 190 189 188 189 189 190 191 189 187 186 187 188 187 187 188 187 187 190 193 196 198 200 203 205 207 210 212 214 216 215 214 212 210 206 206 207 208 211 213 215 219 222 226 227 227 228 227 228 233 237 238 233 222 222 227 229 239 248 254 254 222
236 225 218 229 231 225 226 218 179 212 254 247 246 253 253 255 251 230 202 194 202 211 213 211 203 200 199 197 195 194 194 190 184 187 189 189 189 188 187 188 188 190 191 190 189 189 190 190 190 190 189 188 188 190 193 196 199 200 202 205 207 209 210 211 214 216 215 212 209 206 207 209 209 211 214 215 218 219 221 224 226 226 227 229 233 238 239 233 221 221 225 228 232 231 231 224 199
232 229 223 229 232 233 232 216 177 200 244 253 252 260 259 255 256 253 227 202 204 209 213 212 207 203 203 202 199 193 191 187 182 184 188 189 189 188 187 187 188 190 190 191 192 192 192 193 194 193 191 191 192 193 194 196 199 200 200 203 204 204 205 207 210 212 212 211 207 205 207 208 210 213 214 216 217 216 217 223 227 226 227 229 232 239 236 230 229 228 229 232 234 234 233 204 180
227 232 232 234 230 232 233 214 200 217 238 254 255 260 262 260 260 257 237 214 207 210 217 215 208 207 205 205 202 194 187 185 185 185 186 189 189 188 187 187 189 190 190 190 192 194 194 195 196 196 194 194 196 195 195 196 197 197 197 198 200 202 203 204 208 209 208 208 206 206 210 211 211 212 213 214 215 215 217 222 227 227 226 226 228 234 232 232 234 231 231 238 241 234 215 168 177
227 232 231 234 231 230 229 206 205 224 236 255 265 268 266 264 259 251 240 223 210 209 216 218 214 210 209 207 202 196 190 186 186 186 187 188 188 189 188 188 188 189 191 191 192 194 195 196 196 196 197 197 197 197 196 196 194 193 195 196 198 203 204 202 205 207 205 206 207 207 211 212 212 213 213 212 214 216 217 220 227 229 224 223 225 228 230 235 236 232 233 234 237 243 220 167 177
226 230 232 235 232 232 238 206 184 214 226 239 260 269 263 256 252 249 238 216 209 209 210 215 216 213 212 211 205 200 195 189 187 187 188 188 189 190 189 188 188 190 192 192 192 193 195 197 196 196 197 198 198 197 194 193 191 189 190 193 197 202 205 204 204 205 203 204 208 209 209 211 211 212 211 212 213 215 217 218 224 226 223 223 226 227 230 234 232 232 233 225 230 253 257 200 185
227 226 230 237 239 236 239 229 214 232 229 219 231 254 256 244 246 249 232 202 201 201 205 210 210 210 210 211 207 202 199 193 190 190 189 190 190 189 189 190 190 191 192 193 192 193 195 196 197 197 197 199 199 197 193 191 190 188 188 191 195 199 204 206 206 205 203 205 209 209 208 209 210 211 211 211 213 215 218 219 221 225 225 224 228 230 231 231 229 230 230 223 222 235 243 226 205
231 222 223 231 237 239 236 232 232 244 249 228 216 243 261 249 245 240 209 201 203 192 200 207 204 206 206 207 206 203 201 197 193 193 192 191 190 189 191 192 193 194 192 192 193 194 195 195 196 197 197 199 199 197 196 194 192 192 193 197 200 202 205 207 206 206 206 206 208 207 206 206 207 209 211 212 214 217 219 221 222 225 226 226 229 234 236 234 232 228 224 223 216 208 217 224 215
231 221 220 223 226 231 233 234 239 248 259 246 214 230 260 258 247 235 210 211 206 191 198 203 201 205 204 204 206 204 202 199 194 193 193 193 193 192 193 193 195 195 191 190 192 193 194 194 195 195 196 198 197 196 196 197 196 195 198 202 205 208 209 209 205 205 207 206 205 204 204 205 206 208 210 212 214 217 219 223 224 227 230 230 231 236 240 237 234 227 217 216 207 197 207 217 217
228 215 222 226 220 225 230 237 244 247 253 246 223 224 248 254 245 241 232 226 218 206 204 204 203 205 204 205 206 205 204 201 197 196 193 194 195 196 195 194 195 194 191 191 191 191 192 193 194 194 195 196 195 194 194 197 199 199 201 204 207 210 211 211 207 204 204 202 202 202 203 205 205 207 210 211 214 216 219 222 225 229 231 231 233 236 239 235 233 226 217 213 203 199 208 210 208
222 198 199 217 215 223 228 234 243 244 245 245 232 226 240 254 245 234 230 225 225 225 221 214 208 205 204 206 208 206 203 202 202 200 196 195 196 197 196 194 194 195 193 192 190 190 190 191 193 194 194 195 195 195 195 198 201 202 204 206 207 208 208 208 206 203 201 200 201 203 204 206 207 209 211 211 213 215 218 222 225 229 231 231 232 234 235 233 230 225 221 215 204 204 209 205 201
215 197 198 212 210 219 226 229 236 241 243 240 233 229 238 255 248 231 229 224 221 229 231 223 212 204 204 205 208 206 202 201 203 203 200 197 196 195 194 194 194 195 194 192 190 189 190 191 192 193 194 195 195 196 199 201 203 205 206 208 210 208 204 203 203 203 200 199 202 205 207 209 210 213 214 212 214 216 218 222 224 228 230 229 229 231 232 230 227 224 220 214 206 207 209 204 201
213 201 205 215 207 208 218 215 217 234 242 234 227 226 232 246 245 230 234 227 219 224 231 225 212 204 202 202 206 205 202 201 200 202 202 197 195 192 192 194 193 193 194 194 192 190 190 191 192 193 195 196 196 199 203 205 207 209 208 211 213 209 204 202 203 204 202 202 205 206 207 209 211 214 216 215 215 216 217 220 223 226 227 227 227 227 228 227 226 221 215 211 208 209 209 202 200
208 204 205 209 197 192 205 207 211 229 238 231 225 222 227 243 246 237 238 231 223 224 229 229 221 213 202 197 202 203 201 201 198 201 201 196 194 191 192 193 191 192 193 194 194 191 190 190 191 193 195 195 195 199 203 204 207 209 209 212 213 211 208 205 205 207 206 206 206 205 206 208 209 211 214 215 215 214 214 215 218 221 222 223 224 223 223 224 224 218 212 212 212 211 208 202 199
200 201 201 202 196 193 203 209 215 230 232 221 215 219 235 249 250 236 233 231 227 222 222 227 228 224 208 195 199 200 199 201 198 199 200 197 195 192 192 191 190 192 193 194 195 193 191 190 191 192 194 194 193 197 201 202 204 208 210 212 213 213 212 208 208 210 210 209 208 207 208 209 210 212 214 215 215 213 212 213 213 214 217 219 220 223 223 222 221 217 213 214 215 214 209 203 200
199 203 206 210 211 208 208 211 218 227 226 207 196 203 234 241 243 230 226 221 220 222 226 228 226 225 214 198 196 198 198 200 198 199 199 198 196 193 192 191 191 193 192 193 194 193 192 191 191 191 192 193 193 195 197 198 202 207 210 212 213 214 214 210 210 211 211 211 210 209 209 210 213 215 215 215 213 211 210 210 209 210 213 215 218 223 222 219 219 218 215 216 216 215 210 204 201
197 199 210 214 213 219 226 243 248 246 237 208 196 209 235 237 77 140 204 206 210 217 223 223 220 218 213 201 196 197 199 199 198 199 200 199 197 195 193 192 192 192 191 192 193 193 193 192 191 191 191 191 191 193 196 197 200 205 209 212 214 215 215 214 211 210 210 210 209 209 209 211 214 215 214 214 212 210 208 208 209 210 212 214 215 218 219 217 215 215 215 215 215 215 210 205 202
189 196 212 211 207 220 233 246 266 267 249 220 204 222 235 252 257 223 206 202 199 206 211 212 212 211 209 204 197 198 200 199 198 199 200 198 197 196 195 194 193 192 192 192 192 192 193 192 191 191 190 190 191 193 196 197 199 203 207 209 211 213 214 215 213 210 209 209 208 210 212 212 213 213 212 211 210 209 208 209 211 213 213 213 212 212 215 215 213 215 216 214 216 216 212 206 203
194 195 203 198 205 223 235 235 223 223 239 231 218 228 227 229 242 213 207 212 207 204 207 210 209 207 206 205 201 202 201 199 200 200 199 197 196 197 197 196 196 195 194 194 192 191 191 192 192 191 191 191 192 194 195 196 198 200 203 205 208 211 214 215 215 210 207 206 208 210 212 213 213 213 212 210 209 208 208 210 212 213 212 212 211 208 209 210 211 217 218 216 217 216 214 209 203
218 207 192 190 203 208 209 226 224 217 232 238 227 232 233 226 227 194 201 213 214 211 209 211 211 206 206 205 202 204 204 202 202 201 198 197 198 198 198 199 198 196 195 195 193 190 190 192 193 192 194 194 193 193 194 195 197 199 202 204 206 209 211 213 214 209 204 206 209 209 210 212 212 211 210 209 208 208 208 211 213 215 214 211 210 207 206 205 208 217 219 216 217 216 214 211 204
217 217 199 199 210 206 200 211 224 227 234 240 229 227 233 231 227 222 211 204 207 209 207 213 216 210 208 207 203 202 201 203 204 201 199 199 200 200 199 201 201 198 197 195 194 193 193 193 193 193 195 194 194 194 194 195 197 200 202 202 203 206 208 211 212 208 205 207 209 208 210 212 211 210 209 208 208 209 209 210 213 216 215 212 210 207 207 204 205 213 215 213 215 216 215 212 207
201 208 203 200 201 207 211 210 218 233 238 239 239 233 233 231 221 224 221 211 209 211 208 211 218 219 216 214 210 202 198 202 204 202 202 202 202 202 200 201 202 200 198 197 196 197 197 196 195 195 194 193 195 196 196 197 198 199 200 200 201 203 205 208 209 208 207 208 208 209 211 211 210 209 208 208 209 210 210 211 214 215 214 213 210 207 206 204 204 208 210 209 211 214 216 214 208
193 202 201 199 198 200 207 207 211 226 238 241 247 248 237 97 128 197 205 211 217 219 218 216 218 222 221 218 216 206 199 205 207 207 208 205 202 202 201 200 201 201 200 198 197 197 198 197 198 197 195 195 196 196 197 197 197 199 200 200 201 201 203 205 208 207 207 208 208 209 210 209 209 210 209 209 210 211 212 212 214 214 213 213 210 207 205 203 203 205 205 207 209 211 214 214 209